FW6490 Weather Reports


Display with metric or nautical units.
time (UTC)temp
F
wind
direction
speed
MPH
gust
MPH
rain 1hr
in
rain 24hr
in
rain mn
in
humidity
%
barometer
mb
20200408191854 53 144 1.0 5.0 0.00 0.13 0.01 79 1011.7
20200408191354 53 144 1.0 4.0 0.00 0.13 0.01 79 1011.8
20200408190852 53 144 1.0 4.0 0.00 0.13 0.01 79 1011.8
20200408190353 53 144 0.0 2.0 0.00 0.13 0.01 80 1011.8
20200408185849 53 144 1.0 3.0 0.00 0.13 0.01 81 1011.8
20200408185349 53 144 0.0 3.0 0.00 0.13 0.01 80 1011.8
20200408184846 53 148 0.0 2.0 0.00 0.13 0.01 81 1011.8
20200408184345 53 149 0.0 4.0 0.00 0.13 0.01 81 1012.0
20200408183845 53 149 0.0 4.0 0.00 0.13 0.01 81 1012.0
20200408183342 52 152 0.0 2.0 0.00 0.13 0.01 80 1012.0
20200408182839 52 152 1.0 4.0 0.00 0.13 0.01 79 1011.8
20200408182336 52 152 1.0 4.0 0.00 0.13 0.01 79 1011.8
20200408181837 52 155 0.0 4.0 0.00 0.13 0.01 79 1011.8
20200408181335 51 164 0.0 4.0 0.00 0.13 0.01 78 1011.8
20200408180833 51 164 0.0 4.0 0.00 0.13 0.01 78 1011.8
20200408180332 51 175 0.0 2.0 0.00 0.13 0.01 76 1011.8
20200408175832 51 175 0.0 3.0 0.00 0.13 0.01 76 1011.8
20200408175327 51 175 0.0 3.0 0.00 0.13 0.01 75 1011.8
20200408174821 51 180 0.0 3.0 0.00 0.13 0.01 74 1011.8
20200408174319 51 181 0.0 4.0 0.00 0.13 0.01 73 1011.6
20200408173819 50 181 0.0 4.0 0.00 0.13 0.01 72 1011.6
20200408173315 50 226 1.0 4.0 0.00 0.13 0.01 71 1011.6
20200408172813 50 251 1.0 4.0 0.00 0.13 0.01 71 1011.5
20200408172311 50 250 0.0 3.0 0.00 0.13 0.01 71 1011.5
20200408171807 50 257 0.0 3.0 0.00 0.13 0.01 70 1011.5
20200408171304 50 274 0.0 1.0 0.00 0.13 0.01 70 1011.2
20200408170800 50 171 0.0 1.0 0.00 0.13 0.01 70 1011.2
20200408170251 49 148 0.0 0.0 0.00 0.13 0.01 70 1011.2
20200408165751 49 148 0.0 0.0 0.00 0.13 0.01 70 1011.1
20200408165245 49 148 0.0 0.0 0.00 0.13 0.01 70 1011.0
20200408164742 49 148 0.0 0.0 0.00 0.13 0.01 70 1011.0
20200408164240 49 148 0.0 0.0 0.00 0.13 0.01 70 1010.5
20200408163738 49 148 0.0 0.0 0.00 0.13 0.01 70 1010.5
20200408163239 49 148 0.0 0.0 0.00 0.13 0.01 71 1010.5
20200408162737 49 148 0.0 0.0 0.00 0.13 0.01 70 1010.1
20200408162236 49 148 0.0 0.0 0.00 0.13 0.01 71 1010.1
20200408161735 49 148 0.0 0.0 0.00 0.13 0.01 71 1010.1
20200408161226 49 148 0.0 0.0 0.00 0.13 0.01 71 1010.2
20200408160725 49 148 0.0 0.0 0.00 0.13 0.01 71 1010.1
20200408160224 49 148 0.0 0.0 0.00 0.13 0.01 71 1010.1
20200408155720 48 148 0.0 0.0 0.00 0.13 0.01 71 1010.3
20200408155220 48 148 0.0 0.0 0.00 0.13 0.01 71 1010.3
20200408154720 48 148 0.0 0.0 0.00 0.13 0.01 71 1010.3
20200408154215 48 148 0.0 0.0 0.00 0.13 0.01 71 1010.5
20200408153709 48 148 0.0 0.0 0.00 0.13 0.01 72 1010.5
20200408153210 48 148 0.0 0.0 0.00 0.13 0.01 72 1010.5
20200408152707 48 148 0.0 0.0 0.00 0.13 0.01 72 1010.5
20200408152205 48 127 0.0 0.0 0.00 0.13 0.01 72 1010.5
20200408151703 48 127 0.0 0.0 0.00 0.13 0.01 72 1010.5
20200408151201 48 127 0.0 0.0 0.00 0.13 0.01 72 1010.3
20200408150654 48 127 0.0 0.0 0.00 0.13 0.01 72 1010.3
20200408150152 47 127 0.0 0.0 0.00 0.13 0.01 72 1010.3
20200408145647 47 127 0.0 0.0 0.00 0.13 0.01 72 1010.5
20200408145143 47 127 0.0 0.0 0.00 0.13 0.01 73 1010.5
20200408144641 47 127 0.0 0.0 0.00 0.13 0.01 73 1010.5
20200408144136 47 127 0.0 0.0 0.00 0.13 0.01 73 1010.9
20200408143630 47 127 0.0 0.0 0.00 0.13 0.01 73 1010.9
20200408143123 47 127 0.0 0.0 0.00 0.13 0.01 73 1010.9
20200408142622 47 127 0.0 0.0 0.00 0.13 0.01 73 1010.6
20200408142121 47 127 0.0 0.0 0.00 0.13 0.01 73 1010.6
20200408141623 47 127 0.0 0.0 0.00 0.13 0.01 73 1010.6
20200408141117 47 127 0.0 0.0 0.00 0.13 0.01 73 1010.2
20200408140613 47 127 0.0 0.0 0.00 0.13 0.01 73 1010.2
20200408140107 47 127 0.0 0.0 0.00 0.13 0.01 73 1010.2
20200408135609 47 127 0.0 0.0 0.00 0.13 0.01 73 1010.2
20200408135106 47 127 0.0 0.0 0.00 0.13 0.01 73 1010.2
20200408134606 47 127 0.0 0.0 0.01 0.13 0.01 74 1010.2
20200408134105 47 127 0.0 0.0 0.01 0.13 0.01 74 1010.2
20200408133603 47 127 0.0 0.0 0.01 0.13 0.01 74 1010.2
20200408133102 47 127 0.0 0.0 0.01 0.13 0.01 74 1010.2
20200408132600 47 127 0.0 0.0 0.01 0.13 0.01 74 1010.1
20200408132058 47 127 0.0 0.0 0.01 0.13 0.01 74 1010.1
20200408131557 47 127 0.0 0.0 0.01 0.13 0.01 74 1010.1
20200408131054 47 127 0.0 1.0 0.01 0.13 0.01 74 1009.6
20200408130554 47 127 0.0 1.0 0.01 0.13 0.01 74 1009.6
20200408130053 47 127 0.0 0.0 0.01 0.13 0.01 74 1009.6
20200408125555 47 127 0.0 0.0 0.01 0.13 0.01 74 1009.8
20200408125049 47 127 0.0 0.0 0.01 0.13 0.01 74 1009.8
20200408124547 47 127 0.0 1.0 0.00 0.12 0.00 74 1009.8
20200408124046 47 127 0.0 1.0 0.00 0.12 0.00 74 1009.9
20200408123540 47 127 0.0 0.0 0.00 0.12 0.00 75 1009.9
20200408123038 47 127 0.0 0.0 0.00 0.12 0.00 75 1009.9
20200408122535 47 127 0.0 0.0 0.00 0.12 0.00 75 1010.0
20200408122034 46 127 0.0 0.0 0.00 0.12 0.00 75 1010.0
20200408121532 46 127 0.0 0.0 0.00 0.12 0.00 75 1010.0
20200408121031 46 127 0.0 0.0 0.00 0.12 0.00 75 1009.9
20200408120528 46 127 0.0 0.0 0.00 0.12 0.00 75 1009.9
20200408120024 46 127 0.0 0.0 0.00 0.12 0.00 75 1009.9
20200408115519 46 127 0.0 0.0 0.00 0.12 0.00 75 1009.8
20200408115017 46 127 0.0 0.0 0.00 0.12 0.00 75 1009.8
20200408114516 46 127 0.0 0.0 0.00 0.12 0.00 75 1009.8
20200408114014 46 127 0.0 0.0 0.00 0.12 0.00 75 1009.5
20200408113513 46 127 0.0 0.0 0.00 0.12 0.00 75 1009.5
20200408113009 46 127 0.0 0.0 0.00 0.12 0.00 76 1009.5
20200408112509 46 127 0.0 0.0 0.00 0.12 0.00 76 1009.6
20200408112004 46 127 0.0 0.0 0.00 0.12 0.00 76 1009.6
20200408111455 46 127 0.0 0.0 0.00 0.12 0.00 76 1009.6
20200408110953 46 127 0.0 0.0 0.00 0.12 0.00 76 1009.6
20200408110451 46 127 0.0 0.0 0.00 0.12 0.00 76 1009.6
20200408105951 46 127 0.0 0.0 0.00 0.12 0.00 76 1009.6
20200408105452 46 127 0.0 0.0 0.00 0.12 0.00 76 1009.6
20200408104950 46 127 0.0 0.0 0.00 0.12 0.00 76 1009.6
20200408104450 45 127 0.0 0.0 0.00 0.12 0.00 76 1009.6
20200408103954 45 127 0.0 0.0 0.00 0.12 0.00 76 1009.9
20200408103448 45 127 0.0 0.0 0.00 0.12 0.00 76 1009.9
20200408102946 45 127 0.0 0.0 0.00 0.12 0.00 77 1009.9
20200408102447 45 127 0.0 1.0 0.00 0.12 0.00 77 1010.0
20200408101947 45 127 0.0 1.0 0.00 0.12 0.00 77 1010.0
20200408101445 45 127 0.0 1.0 0.00 0.12 0.00 77 1010.0
20200408100944 46 127 0.0 2.0 0.00 0.12 0.00 77 1010.4
20200408100444 45 127 0.0 2.0 0.00 0.12 0.00 77 1010.4
20200408095941 45 127 0.0 0.0 0.00 0.12 0.00 77 1010.4
20200408095440 45 127 0.0 0.0 0.00 0.12 0.00 77 1010.3
20200408094939 45 127 0.0 0.0 0.00 0.12 0.00 78 1010.3
20200408094434 46 127 0.0 0.0 0.00 0.12 0.00 78 1010.3
20200408093931 46 127 0.0 0.0 0.00 0.12 0.00 78 1010.5
20200408093430 46 127 0.0 0.0 0.00 0.12 0.00 78 1010.5
20200408092927 46 127 0.0 0.0 0.00 0.12 0.00 78 1010.5
20200408092425 46 127 0.0 0.0 0.00 0.12 0.00 78 1010.5
20200408091923 47 127 0.0 1.0 0.00 0.12 0.00 78 1010.5
20200408091424 47 127 0.0 1.0 0.00 0.12 0.00 78 1010.5
20200408090922 47 127 0.0 0.0 0.00 0.12 0.00 78 1010.6
20200408090416 48 127 0.0 0.0 0.00 0.12 0.00 78 1010.6
20200408085910 48 126 0.0 0.0 0.00 0.12 0.00 77 1010.6
20200408085408 48 127 0.0 0.0 0.00 0.12 0.00 77 1010.7
20200408084905 48 126 0.0 0.0 0.00 0.12 0.00 78 1010.7
20200408084400 48 126 0.0 0.0 0.00 0.12 0.00 78 1010.7
20200408083857 48 126 0.0 0.0 0.00 0.12 0.00 78 1011.0
20200408083357 48 127 0.0 0.0 0.00 0.12 0.00 78 1011.0
20200408082853 48 127 0.0 0.0 0.00 0.12 0.00 78 1011.1
20200408082347 48 127 0.0 0.0 0.00 0.12 0.00 78 1011.1
20200408081844 48 127 0.0 0.0 0.00 0.12 0.00 79 1011.1
20200408081345 48 127 0.0 0.0 0.00 0.12 0.00 79 1011.4
20200408080840 48 127 0.0 0.0 0.00 0.12 0.00 79 1011.4
20200408080338 48 126 0.0 0.0 0.00 0.12 0.00 79 1011.4
20200408075837 48 127 0.0 0.0 0.00 0.12 0.00 79 1011.4
20200408075333 48 127 0.0 2.0 0.00 0.12 0.00 79 1011.4
20200408074832 48 127 0.0 2.0 0.00 0.12 0.00 79 1011.4
20200408074325 48 126 0.0 0.0 0.00 0.12 0.00 79 1011.5
20200408073830 49 126 0.0 0.0 0.01 0.12 0.00 79 1011.5
20200408073323 49 126 0.0 0.0 0.02 0.12 0.00 79 1011.5
20200408072824 49 126 0.0 0.0 0.03 0.12 0.00 79 1011.1
20200408072325 49 126 0.0 0.0 0.04 0.12 0.00 80 1011.1
20200408071817 49 126 0.0 0.0 0.05 0.12 0.00 80 1011.1
20200408071311 49 126 0.0 0.0 0.06 0.12 0.00 80 1011.2
20200408070810 49 126 0.0 0.0 0.07 0.12 0.00 80 1011.2
20200408070309 49 126 0.0 0.0 0.07 0.12 0.00 80 1011.2
20200408065808 49 126 0.0 3.0 0.08 0.12 0.12 81 1011.5
20200408065303 49 126 0.0 3.0 0.08 0.12 0.12 81 1011.5
20200408064757 49 126 0.0 3.0 0.08 0.12 0.12 81 1011.5
20200408064252 49 129 0.0 3.0 0.08 0.11 0.12 81 1011.6
20200408063752 49 126 1.0 4.0 0.09 0.11 0.11 81 1011.6
20200408063251 49 131 1.0 4.0 0.08 0.10 0.10 81 1011.6
20200408062751 49 127 1.0 4.0 0.07 0.09 0.09 82 1011.7
20200408062250 50 128 1.0 5.0 0.06 0.08 0.08 81 1011.7
20200408061750 50 123 1.0 5.0 0.05 0.07 0.07 82 1011.7
20200408061246 50 98 1.0 7.0 0.04 0.06 0.06 82 1011.5
20200408060747 50 137 2.0 8.0 0.03 0.05 0.05 82 1011.5
20200408060247 50 94 2.0 8.0 0.03 0.05 0.05 82 1011.5
20200408055746 50 130 1.0 7.0 0.03 0.04 0.05 83 1011.3
20200408055244 50 142 1.0 7.0 0.03 0.04 0.04 82 1011.3
20200408054743 50 136 1.0 7.0 0.02 0.03 0.04 82 1011.3
20200408054246 50 131 2.0 8.0 0.02 0.03 0.03 83 1011.2
20200408053739 50 128 3.0 9.0 0.01 0.02 0.02 83 1011.2
20200408053236 50 137 2.0 9.0 0.02 0.02 0.02 82 1011.2
20200408052735 50 163 0.0 6.0 0.02 0.02 0.02 82 1010.7
20200408052233 50 230 0.0 1.0 0.02 0.02 0.02 82 1010.7
20200408051732 50 230 0.0 5.0 0.02 0.02 0.02 82 1010.7
20200408051231 50 231 1.0 5.0 0.02 0.02 0.02 82 1010.6
20200408050728 50 240 1.0 5.0 0.02 0.02 0.02 82 1010.6
20200408050226 50 247 1.0 5.0 0.02 0.02 0.02 82 1010.6
20200408045729 50 269 0.0 3.0 0.01 0.01 0.01 82 1010.6
20200408045223 50 269 0.0 1.0 0.01 0.01 0.01 82 1010.6
20200408044720 50 269 0.0 1.0 0.01 0.01 0.01 82 1010.6
20200408044218 51 269 0.0 1.0 0.01 0.01 0.01 82 1010.3
20200408043715 51 269 0.0 0.0 0.01 0.01 0.01 82 1010.3
20200408043215 51 269 0.0 0.0 0.00 0.00 0.00 82 1010.3
20200408042706 51 269 0.0 0.0 0.00 0.00 0.00 81 1010.2
20200408042210 51 269 0.0 0.0 0.00 0.00 0.00 81 1010.2
20200408041703 51 269 0.0 3.0 0.00 0.00 0.00 81 1011.1
20200408041155 51 269 0.0 3.0 0.00 0.00 0.00 80 1011.3
20200408040651 52 269 0.0 0.0 0.00 0.00 0.00 80 1011.3
20200408040140 52 269 0.0 0.0 0.00 0.00 0.00 79 1011.3
20200408035643 52 269 0.0 0.0 0.00 0.00 0.00 78 1011.2
20200408035141 52 269 0.0 0.0 0.00 0.00 0.00 77 1011.2
20200408034641 52 269 0.0 0.0 0.00 0.00 0.00 77 1011.2
20200408034141 52 269 0.0 0.0 0.00 0.00 0.00 76 1011.1
20200408033640 52 269 0.0 0.0 0.00 0.00 0.00 75 1011.1
20200408033138 53 269 0.0 2.0 0.00 0.00 0.00 74 1011.1
20200408032635 52 269 0.0 3.0 0.00 0.00 0.00 73 1011.2
20200408032135 52 269 0.0 3.0 0.00 0.00 0.00 71 1011.2
20200408031637 52 269 1.0 6.0 0.00 0.00 0.00 71 1011.2
20200408031132 52 269 1.0 6.0 0.00 0.00 0.00 71 1011.0
20200408030627 52 269 1.0 6.0 0.00 0.00 0.00 71 1011.0
20200408030124 52 269 2.0 6.0 0.00 0.00 0.00 71 1011.0
20200408025625 52 271 2.0 6.0 0.00 0.00 0.00 71 1011.2
20200408025122 52 274 2.0 9.0 0.00 0.00 0.00 71 1011.2
20200408024625 52 273 3.0 9.0 0.00 0.00 0.00 71 1011.2
20200408024118 52 278 2.0 8.0 0.00 0.00 0.00 71 1011.0
20200408023617 52 283 3.0 8.0 0.00 0.00 0.00 71 1011.0
20200408023119 52 285 3.0 7.0 0.00 0.00 0.00 71 1011.0
20200408022617 53 284 2.0 7.0 0.00 0.00 0.00 71 1010.8
20200408022114 53 284 3.0 8.0 0.00 0.00 0.00 71 1010.8
20200408021616 53 280 3.0 8.0 0.00 0.00 0.00 70 1010.8
20200408021104 53 281 4.0 10.0 0.00 0.00 0.00 70 1010.7
20200408020604 53 279 4.0 10.0 0.00 0.00 0.00 70 1010.7
20200408020105 53 270 5.0 11.0 0.00 0.00 0.00 70 1010.7
20200408015605 53 261 6.0 11.0 0.00 0.00 0.00 69 1011.5
20200408015104 53 279 5.0 10.0 0.00 0.00 0.00 68 1011.5
20200408014609 53 290 4.0 10.0 0.00 0.00 0.00 67 1011.5
20200408014054 53 290 2.0 7.0 0.00 0.00 0.00 67 1012.0
20200408013556 54 295 2.0 7.0 0.00 0.00 0.00 66 1012.0
20200408013054 54 254 2.0 6.0 0.00 0.00 0.00 66 1012.0
20200408012552 54 260 2.0 8.0 0.00 0.00 0.00 67 1011.5
20200408012056 54 255 3.0 8.0 0.00 0.00 0.00 67 1011.5
20200408011551 54 271 5.0 3.0 0.00 0.00 0.00 67 1011.5
20200408005953 54 296 6.0 13.0 0.00 0.00 0.00 67 1010.6
20200408005454 54 269 6.0 13.0 0.00 0.00 0.00 66 1010.4
20200408004952 54 286 6.0 13.0 0.00 0.00 0.00 66 1010.4
20200408004449 55 277 6.0 13.0 0.00 0.00 0.00 66 1010.4
20200408003947 55 275 6.0 16.0 0.00 0.00 0.00 66 1010.4
20200408003447 55 283 5.0 16.0 0.00 0.00 0.00 67 1010.4
20200408002945 55 276 5.0 10.0 0.00 0.00 0.00 68 1010.4
20200408002444 55 301 5.0 10.0 0.00 0.00 0.00 68 1010.3
20200408001942 56 288 6.0 13.0 0.00 0.00 0.00 69 1010.3
20200408001440 56 298 6.0 14.0 0.00 0.00 0.00 68 1010.3
20200408000939 56 274 7.0 15.0 0.00 0.00 0.00 69 1010.3
20200408000438 56 276 6.0 15.0 0.00 0.00 0.00 67 1010.3
20200407235936 56 296 5.0 12.0 0.00 0.00 0.00 69 1010.3
20200407235437 56 269 5.0 12.0 0.00 0.00 0.00 68 1010.6
20200407234935 57 293 5.0 9.0 0.00 0.00 0.00 67 1010.6
20200407234434 57 302 6.0 12.0 0.00 0.00 0.00 67 1010.6
20200407233931 56 304 6.0 12.0 0.00 0.00 0.00 66 1010.7
20200407233432 57 310 6.0 12.0 0.00 0.00 0.00 66 1010.7
20200407232930 57 282 6.0 12.0 0.00 0.00 0.00 65 1010.8
20200407232428 58 306 5.0 11.0 0.00 0.00 0.00 65 1010.9
20200407231924 59 306 5.0 14.0 0.00 0.00 0.00 64 1010.9
20200407231423 58 301 6.0 14.0 0.00 0.00 0.00 65 1010.9
20200407230917 59 306 6.0 13.0 0.00 0.00 0.00 63 1010.7
20200407230417 60 344 6.0 13.0 0.00 0.00 0.00 62 1010.7
20200407225916 60 320 6.0 13.0 0.00 0.00 0.00 63 1010.7
20200407225413 59 303 6.0 13.0 0.00 0.00 0.00 63 1011.2
20200407224911 60 304 5.0 9.0 0.00 0.00 0.00 63 1011.2
20200407224412 60 315 5.0 10.0 0.00 0.00 0.00 62 1011.2
20200407223912 61 306 6.0 13.0 0.00 0.00 0.00 60 1011.5
20200407223413 62 294 6.0 13.0 0.00 0.00 0.00 58 1011.5
20200407222908 62 324 7.0 14.0 0.00 0.00 0.00 57 1011.5
20200407222409 63 325 7.0 14.0 0.00 0.00 0.00 57 1011.3
20200407221906 62 343 7.0 12.0 0.00 0.00 0.00 57 1011.3
20200407221407 63 306 6.0 12.0 0.00 0.00 0.00 55 1011.3
20200407220907 64 306 6.0 10.0 0.00 0.00 0.00 53 1011.7
20200407220405 65 355 4.0 8.0 0.00 0.00 0.00 53 1011.7
20200407215905 65 330 4.0 8.0 0.00 0.00 0.00 53 1011.7
20200407215404 64 319 4.0 9.0 0.00 0.00 0.00 55 1011.8
20200407214902 62 327 6.0 13.0 0.00 0.00 0.00 57 1011.8
20200407214401 62 304 6.0 13.0 0.00 0.00 0.00 54 1011.8
20200407213900 62 266 6.0 15.0 0.00 0.00 0.00 55 1011.9
20200407213357 62 311 6.0 15.0 0.00 0.00 0.00 54 1011.9
20200407212856 64 299 6.0 11.0 0.00 0.00 0.00 54 1011.9
20200407212354 64 310 6.0 12.0 0.00 0.00 0.00 53 1012.1
20200407211854 64 333 5.0 12.0 0.00 0.00 0.00 51 1012.1
20200407211355 65 310 4.0 9.0 0.00 0.00 0.00 51 1012.3
20200407210851 65 273 4.0 9.0 0.00 0.00 0.00 49 1012.3
20200407210352 65 305 4.0 8.0 0.00 0.00 0.00 47 1012.3
20200407205847 65 311 4.0 9.0 0.00 0.00 0.00 48 1012.5
20200407205347 65 314 3.0 9.0 0.00 0.00 0.00 47 1012.5
20200407204845 65 315 3.0 7.0 0.00 0.00 0.00 48 1012.5
20200407204344 64 24 3.0 7.0 0.00 0.00 0.00 50 1012.7
20200407203845 63 282 3.0 10.0 0.00 0.00 0.00 49 1012.7
20200407203343 62 282 4.0 10.0 0.00 0.00 0.00 50 1012.7
20200407202842 62 312 4.0 8.0 0.00 0.00 0.00 50 1012.9
20200407202343 62 277 4.0 9.0 0.00 0.00 0.00 51 1012.9
20200407201840 62 280 4.0 9.0 0.00 0.00 0.00 52 1012.9
20200407201338 62 312 4.0 8.0 0.00 0.00 0.00 50 1012.9
20200407200830 62 316 4.0 8.0 0.00 0.00 0.00 53 1012.9
20200407200329 61 311 3.0 8.0 0.00 0.00 0.00 53 1012.9
20200407195824 61 286 3.0 7.0 0.00 0.00 0.00 53 1013.0
20200407195321 61 281 3.0 7.0 0.00 0.00 0.00 51 1013.0
20200407194819 62 291 4.0 9.0 0.00 0.00 0.00 51 1013.0
20200407194318 64 292 3.0 11.0 0.00 0.00 0.00 50 1013.1
20200407193821 65 285 3.0 11.0 0.00 0.00 0.00 46 1013.1
20200407193317 65 96 4.0 8.0 0.00 0.00 0.00 43 1013.1
20200407192814 65 40 3.0 8.0 0.00 0.00 0.00 44 1013.2
20200407192314 65 37 3.0 5.0 0.00 0.00 0.00 43 1013.2